Showing default

YAMAL 401, 40345

Orbit data source: Space-Track

YAMAL 401, 40345 is a payload satellite owned by Gazprom KS (CIS) in GEO that was launched on Mon, 15 Dec 2014 UTC via a PROTON-M/BRIZ-M launch vehicle from the Tyuratam Missile And Space Complex (TTMTR). Payload-class satellites include a variety of spacecraft equipped with specific instruments for various scientific and technological missions. These include communications satellites like Starlink; space stations such as the ISS; scientific satellites like the Hubble; Earth observation satellites from companies like Planet Labs, Umbra, and HawkEye 360; GPS; miniature CubeSats for education and research; and military/defense satellites.

Not visible in the next 10 days
Identifier
40345, 2014-082A
Orbit
GEO
Country
Flag of CISCIS
Related business
Manufacturer
Resehetnev ISS
Mission
Operational Commercial Communications
Bus & Motor
EKSPRESS-2000, AOCS
Mass
2,976 kg wet, 2,500 kg dry
Launch date (UTC)
2014-12-15 (12 years ago)
Launch vehicle
PROTON-M/BRIZ-M
Launch site
Tyuratam Missile And Space Complex (TTMTR)
Object type
Payload
Rocket body
Debris
Shape & HBR
Box + 2 Pan, 17.5 m
Radar Cross Section
29.721 m², Large (>1 m²)

Expand to show TLE details & history
Last TLE update: 18 hours ago

TLE from 18 hours ago
0 YAMAL 401
1 40345U 14082A   26172.70322819  .00000000  00000-0  00000+0 0  9990
2 40345   0.0100   7.1327 0001168 130.4118 115.4749  1.00263246 41968
Epoch: 2026-06-21T16:52Z
TLE epoch observation values (Epoch: 2026-06-21T16:52:38.915Z)
Latitude
-0.02689°
Longitude
89.98005°
Altitude
35,790.619 km
Speed
3.074 km/s
True Right ascension
16h 52m 10s
True Declination
0° 01' 37"
Sunlit
Object was in daylight at epoch
Visualization orbit readout
Latitude
Unknown
Longitude
Unknown
Altitude
Unknown
Speed
Unknown
Apparent Right ascension
Unknown
Apparent Declination
Unknown
Sunlit
N/A
Visualization observer readout
Local Sidereal Time
21:37:56
Azimuth
Unknown
Elevation
Unknown
Doppler factor
Unknown
Orbital elements
Apogee altitude
35,794.984 km
Perigee altitude
35,785.134 km
Semi-major axis
42,168.196 km
Eccentricity
0.00012
Inclination
0.01°
RAAN
7.1327°
Arg. of periapsis
130.4118°
True anomaly
115.48698°
Mean anomaly
115.4749°
Eccentric anomaly
115.48094°
Mean motion
0.25065 °/min
Orbital period
1,436.27 mins
BSTAR
0
Loading maneuver chart data...
Computing Atmospheric mass density...
Loading historical data...
Loading historical data...
Loading historical data...
Loading historical data...
Loading historical data...
Loading historical data...
Loading historical data...
Other satellites on launch #82 in the year 2014 (2014-12-15 UTC)

Documentation

Showing up to 5 results
|